Location: Helsinki
(60.1699°N, 24.9384°E)
Time: 23:46:57
(UTC+02:00)

Vanguard 2 Rocket - Pass Details

Date: 30 September 2023
Orbit: 553 x 3312 km, 32.9° (Epoch: 28 November)

Event Time Altitude Azimuth Distance (km) Brightness Sun altitude
Rises 12:41:40 0° 226° (SW) 6,488 11.7 26.8°
Reaches altitude 10° 12:46:48 10° 215° (SW) 5,796 11.8 26.9°
Maximum altitude 13:00:20 26° 168° (SSE) 5,014 13.3 27.0°
Drops below altitude 10° 13:14:27 10° 123° (ESE) 6,076 11.6 27.0°
Sets 13:20:00 0° 112° (ESE) 6,850 11.6 27.0°
